Regional Weather Roundup
Issued by NWS Cleveland, OH

Home | Current Version | Previous Version | Graphics & Text | Print | Product List | Glossary On
Versions: 1 2 3 4 5 6 7 8 9 10 11 12 13 14 15 16 17 18 19 20 21 22 23 24 25 26 27 28 29 30 31 32 33 34 35 36 37 38 39 40 41 42 43 44 45 46 47 48 49 50
000
ASUS41 KCLE 201802
RWRCLE
OHIO REGIONAL WEATHER ROUNDUP
NATIONAL WEATHER SERVICE CLEVELAND, OH
200 PM EDT MON OCT 20 2014

NOTE: "FAIR" INDICATES FEW OR NO CLOUDS BELOW 12,000 FEET WITH NO
SIGNIFICANT WEATHER AND/OR OBSTRUCTIONS TO VISIBILITY.

OHZ001>008-015>018-024>027-034-035-043-044-201900-
   NORTHWEST OHIO

CITY           SKY/WX    TMP DP  RH WIND       PRES   REMARKS
DEFIANCE       LGT RAIN  53  50  89 SW9       29.83S FOG
FINDLAY        RAIN      53  49  86 SW5       29.84F FOG
TOLEDO EXPRESS LGT RAIN  51  49  92 SW9       29.80F FOG
TOLEDO EXEC    LGT RAIN  54  48  80 SW16G22   29.82F
LIMA           LGT RAIN  53  49  86 S9        29.84F FOG
$$

OHZ009>014-019>023-028>033-038-089-201900-
   NORTHEAST OHIO

CITY           SKY/WX    TMP DP  RH WIND       PRES   REMARKS
CLE-HOPKINS    CLOUDY    57  46  66 S10       29.86F
CLE-LAKEFRONT  CLOUDY    57  45  64 S14       29.83F
CUY CO. ARPT   PTSUNNY   57  48  72 S14       29.85F
LORAIN-ELYRIA  CLOUDY    55  47  74 SW12      29.84F
ASHTABULA      MOSUNNY   54  43  66 S14       29.87F
AKRON-CANTON   CLOUDY    55  43  63 S12       29.88F
WOOSTER        CLOUDY    59  44  57 S12       29.86F
MANSFIELD      CLOUDY    55  49  80 S8        29.85F
YOUNGSTOWN     CLOUDY    54  45  71 SW9       29.88F
$$

OHZ042-051>053-060>062-070>072-077>081-201900-
  SOUTHWEST OHIO

CITY           SKY/WX    TMP DP  RH WIND       PRES   REMARKS
CINC-COVINGTON PTSUNNY   61  49  64 S15G25    29.90F
CINC-LUNKEN    PTSUNNY   61  48  62 SW14G23   29.90F
HAMILTON       PTSUNNY   63  49  60 SW12G20   29.89F
DAYTON         CLOUDY    61  47  59 SW15      29.88F
WRIGHT-PAT AFB NOT AVBL
DAYTON GENERAL CLOUDY    60  47  61 SW10G24   29.87F
WILMINGTON       N/A    N/A N/A N/A MISG      29.88F
$$

OHZ036-037-039>041-045>050-054>059-063>069-073>076-082>088-201900-
  CENTRAL AND SOUTHEAST OHIO

CITY           SKY/WX    TMP DP  RH WIND       PRES   REMARKS
COLUMBUS       PTSUNNY   60  45  57 S13       29.88F
OSU AIRPORT    CLOUDY    60  47  61 S13       29.86F
BOLTON FIELD   CLOUDY    61  48  63 S15G22    29.88F
RICKENBACK AFB NOT AVBL
NEWARK         PTSUNNY   61  44  53 SW15G21   29.89F
MARION         CLOUDY    58  46  64 SW12      29.86F
LANCASTER      SUNNY     61  45  55 S12       29.90F
ZANESVILLE     CLOUDY   N/A N/A N/A S14       29.92F
NEW PHILLY     PTSUNNY   58  43  57 S9        29.91F
$$



USA.gov is the U.S. government's official web portal to all federal, state and local government web resources and services.